Find Kuiper-00015

NORAD ID: 63731 Int'l Des: 2025-088 Owner: KUIP Country: US Constellation: amazon-leo operational
LEOCIRCULAR

实时位置

正在加载3D地球...

关于 Kuiper-00015

正在加载描述...

即将过境

Passes for default location (London). Set your location on the main map for personalized predictions.

高度历史

Loading altitude history...

两行轨道根数

1 63731U 25088H 26127.65724169 -.00001154 00000-0 -12237-3 0 9992
2 63731 51.8984 217.3715 0000438 93.9871 266.1142 14.79923723 56432
Epoch: May 7, 2026 • Age: 7 hours

当前状态

高度 630.3 km
速度 7.55 km/s
星下点 25.33°N, 35.98°E
发射日期 Apr 28, 2025
运行时间 1 years
类型 internet

技术详情

分类 Payload
质量 490.00 kg
干质量 490.00 kg
总质量 490.00 kg
长度 1.80 m
直径 0.70 m
跨度 5.00 m
形状 Box + 2 pan
制造商 KUIP
平台类型 Kuiper
阶段状态 In Orbit
所有者/国家 KUIP/US

Most Searched